Simultaneous Nadir Overpasses (SNOs) Predictions

Prediction of SNOs between AQUA and METOP-A Satellite Orbit:

Table of predicted SNOs for the next 14.0 days since TLE Epoch: 4/10/2020
Index Date (AQUA) Time (AQUA) Lat,Lon (AQUA) SZA (AQUA ) Date (METOP-A) Time (METOP-A) Lat,Lon (METOP-A) SZA (METOP-A ) Distance(km) Time Diff (sec)
1 04/12/2020 09:14:53 -76.09,-150.16 112.60 04/12/2020 09:13:51 -76.09,-150.05 112.60 3.20 62
2 04/12/2020 10:04:21 76.10, 17.44 67.40 04/12/2020 10:04:30 76.13, 17.43 67.43 3.43 9
3 04/12/2020 10:53:55 -76.52,-176.29 112.13 04/12/2020 10:55:03 -76.53,-173.86 112.26 62.78 68
4 04/15/2020 04:49:08 -76.10, -83.74 113.62 04/15/2020 04:48:14 -76.07, -83.74 113.63 2.45 54
5 04/15/2020 05:38:36 76.11, 83.85 66.39 04/15/2020 05:38:53 76.11, 83.72 66.40 3.57 17
6 04/18/2020 00:23:23 -76.11, -17.34 114.61 04/18/2020 00:22:36 -76.10, -17.29 114.60 1.22 47
7 04/18/2020 01:12:50 76.12, 150.25 65.40 04/18/2020 01:13:14 76.14, 150.16 65.42 3.03 24
8 04/20/2020 19:57:37 -76.12, 49.05 115.56 04/20/2020 19:56:57 -76.13, 49.16 115.55 3.02 40
9 04/20/2020 20:47:05 76.14,-143.37 64.45 04/20/2020 20:47:36 76.16,-143.40 64.47 2.48 31
10 04/23/2020 15:31:52 -76.15, 115.42 116.48 04/23/2020 15:31:20 -76.11, 115.44 116.51 3.72 32
11 04/23/2020 16:21:20 76.17, -77.02 63.54 04/23/2020 16:21:58 76.19, -76.97 63.54 2.31 38




NCC Satellite Simultaneous Nadir Overpasses (SNOs) Prediction Service
